Change the Weather History Date:

Friday, January 4, 2013

  Actual Average Record
Temperature  
Mean Temperature 12 °F -  
Max Temperature 24 °F 16 °F 35 °F (2007)
Min Temperature 0 °F 0 °F -23 °F (2015)
Degree Days  
Heating Degree Days 53    
Moisture  
Dew Point 12 °F    
Average Humidity 86    
Maximum Humidity 93    
Minimum Humidity 74    
Precipitation  
Precipitation 0.00 in - - ()
Sea Level Pressure  
Sea Level Pressure 29.90 in    
Wind  
Wind Speed 6 mph (West)    
Max Wind Speed 15 mph    
Max Gust Speed 21 mph    
Visibility 10 miles    
Events      
Averages and records for this station are not official NWS values.
T = Trace of Precipitation, MM = Missing Value Source: NWS Daily Summary

Daily Weather History Graph

Daily Weather History Graph

Search for Another Location

Airport or City:

Trip Planner

Search our weather history database for the weather conditions in past years. The results will help you decide how hot, cold, wet, or windy it might be!

Date:

Astronomy

Jan. 04, 2013 Rise Set
Actual Time 7:56 AM CST 4:29 PM CST
Civil Twilight 7:20 AM CST 5:04 PM CST
Nautical Twilight 6:41 AM CST 5:44 PM CST
Astronomical Twilight 6:03 AM CST 6:21 PM CST
Moon No Moon Rise 11:04 AM CST (1/4)
Length of Visible Light 9h 44m
Length of Day
8h 32m
Waning Gibbous, 55% of the Moon is Illuminated
Jan 4
Waning Gibbous
Jan 4
Last Quarter
Jan 11
New
Jan 18
First Quarter
Jan 26
Full

Hourly Weather History & Observations

Time (CST) Temp. Windchill Dew Point Humidity Pressure Visibility Wind Dir Wind Speed Gust Speed Precip Events Conditions
12:12 AM 12.2 °F 2.9 °F 8.6 °F 85% 29.78 in 10.0 mi WSW 5.8 mph - N/A   Clear
12:33 AM 12.2 °F 4.3 °F 8.6 °F 85% 29.78 in 10.0 mi WSW 4.6 mph - N/A   Scattered Clouds
12:53 AM 12.2 °F 1.7 °F 10.4 °F 92% 29.78 in 10.0 mi WSW 6.9 mph - N/A   Scattered Clouds
1:12 AM 12.2 °F 4.3 °F 10.4 °F 92% 29.78 in 10.0 mi WSW 4.6 mph - N/A   Scattered Clouds
1:33 AM 12.2 °F 1.7 °F 10.4 °F 92% 29.78 in 10.0 mi WSW 6.9 mph - N/A   Clear
1:53 AM 12.2 °F 2.9 °F 10.4 °F 92% 29.77 in 10.0 mi WSW 5.8 mph - N/A   Clear
2:12 AM 12.2 °F 2.9 °F 10.4 °F 92% 29.78 in 10.0 mi WSW 5.8 mph - N/A   Scattered Clouds
2:33 AM 12.2 °F 2.9 °F 10.4 °F 92% 29.78 in 10.0 mi WSW 5.8 mph - N/A   Clear
2:53 AM 12.2 °F 1.7 °F 10.4 °F 92% 29.78 in 10.0 mi WSW 6.9 mph - N/A   Clear
3:12 AM 12.2 °F 4.3 °F 10.4 °F 92% 29.79 in 10.0 mi WSW 4.6 mph - N/A   Clear
3:33 AM 12.2 °F 4.3 °F 10.4 °F 92% 29.79 in 10.0 mi West 4.6 mph - N/A   Clear
3:53 AM 12.2 °F 2.9 °F 10.4 °F 92% 29.79 in 10.0 mi WSW 5.8 mph - N/A   Clear
4:12 AM 12.2 °F 2.9 °F 10.4 °F 92% 29.79 in 10.0 mi WSW 5.8 mph - N/A   Clear
4:33 AM 12.2 °F 2.9 °F 10.4 °F 92% 29.79 in 10.0 mi WSW 5.8 mph - N/A   Clear
4:53 AM 12.2 °F 2.9 °F 10.4 °F 92% 29.80 in 10.0 mi West 5.8 mph - N/A   Clear
5:13 AM 12.2 °F 0.7 °F 10.4 °F 92% 29.80 in 10.0 mi WSW 8.1 mph - N/A   Clear
5:33 AM 14.0 °F 2.0 °F 10.4 °F 86% 29.80 in 10.0 mi West 9.2 mph - N/A   Clear
5:53 AM 14.0 °F 2.9 °F 10.4 °F 86% 29.81 in 10.0 mi WSW 8.1 mph - N/A   Clear
6:13 AM 12.2 °F 0.7 °F 10.4 °F 92% 29.81 in 10.0 mi WSW 8.1 mph - N/A   Clear
6:32 AM 12.2 °F -0.2 °F 10.4 °F 92% 29.81 in 10.0 mi WSW 9.2 mph - N/A   Clear
6:53 AM 12.2 °F 1.7 °F 10.4 °F 92% 29.81 in 10.0 mi WSW 6.9 mph - N/A   Clear
7:13 AM 10.4 °F -0.4 °F 8.6 °F 92% 29.81 in 10.0 mi WSW 6.9 mph - N/A   Clear
7:32 AM 10.4 °F 2.2 °F 8.6 °F 92% 29.82 in 10.0 mi WSW 4.6 mph - N/A   Clear
7:53 AM 10.4 °F 0.8 °F 8.6 °F 92% 29.83 in 10.0 mi WSW 5.8 mph - N/A   Clear
8:12 AM 10.4 °F -0.4 °F 8.6 °F 92% 29.83 in 10.0 mi WSW 6.9 mph - N/A   Clear
8:33 AM 10.4 °F 0.8 °F 8.6 °F 92% 29.83 in 10.0 mi WSW 5.8 mph - N/A   Clear
8:52 AM 12.2 °F -0.2 °F 10.4 °F 92% 29.84 in 10.0 mi West 9.2 mph - N/A   Clear
9:13 AM 15.8 °F 5.1 °F 12.2 °F 86% 29.85 in 10.0 mi West 8.1 mph - N/A   Clear
9:33 AM 17.6 °F 7.3 °F 14.0 °F 86% 29.86 in 10.0 mi West 8.1 mph - N/A   Clear
9:52 AM 19.4 °F 9.5 °F 14.0 °F 80% 29.87 in 10.0 mi West 8.1 mph - N/A   Clear
10:13 AM 19.4 °F 10.4 °F 15.8 °F 86% 29.87 in 10.0 mi West 6.9 mph - N/A   Clear
10:32 AM 21.2 °F 11.7 °F 15.8 °F 80% 29.87 in 10.0 mi West 8.1 mph - N/A   Clear
10:53 AM 21.2 °F 11.7 °F 15.8 °F 80% 29.88 in 10.0 mi West 8.1 mph - N/A   Clear
11:12 AM 23.0 °F 11.7 °F 15.8 °F 74% 29.89 in 10.0 mi West 11.5 mph 16.1 mph N/A   Clear
11:33 AM 24.8 °F 15.3 °F 17.6 °F 74% 29.89 in 10.0 mi WNW 9.2 mph - N/A   Scattered Clouds
11:53 AM 24.8 °F 15.3 °F 17.6 °F 74% 29.89 in 10.0 mi WNW 9.2 mph 19.6 mph N/A   Overcast
12:13 PM 24.8 °F 14.6 °F 17.6 °F 74% 29.89 in 10.0 mi WNW 10.4 mph 19.6 mph N/A   Overcast
12:33 PM 24.8 °F 14.0 °F 17.6 °F 74% 29.90 in 10.0 mi WNW 11.5 mph 20.7 mph N/A   Overcast
12:53 PM 24.8 °F 14.0 °F 17.6 °F 74% 29.91 in 10.0 mi NW 11.5 mph 18.4 mph N/A   Overcast
1:13 PM 24.8 °F 12.4 °F 17.6 °F 74% 29.90 in 10.0 mi WNW 15.0 mph 19.6 mph N/A   Overcast
1:32 PM 24.8 °F 12.4 °F 17.6 °F 74% 29.91 in 10.0 mi WNW 15.0 mph - N/A   Overcast
1:53 PM 24.8 °F 12.4 °F 17.6 °F 74% 29.91 in 10.0 mi WNW 15.0 mph 20.7 mph N/A   Overcast
2:13 PM 24.8 °F 14.0 °F 19.4 °F 80% 29.92 in 10.0 mi WNW 11.5 mph 17.3 mph N/A   Overcast
2:32 PM 24.8 °F 14.0 °F 17.6 °F 74% 29.92 in 10.0 mi WNW 11.5 mph 18.4 mph N/A   Overcast
2:53 PM 24.8 °F 15.3 °F 17.6 °F 74% 29.92 in 10.0 mi WNW 9.2 mph - N/A   Overcast
3:13 PM 24.8 °F 13.4 °F 17.6 °F 74% 29.94 in 10.0 mi West 12.7 mph 19.6 mph N/A   Overcast
3:32 PM 24.8 °F 14.0 °F 17.6 °F 74% 29.95 in 10.0 mi WNW 11.5 mph 19.6 mph N/A   Overcast
3:53 PM 23.0 °F 14.7 °F 17.6 °F 80% 29.97 in 10.0 mi WNW 6.9 mph - N/A   Overcast
4:13 PM 23.0 °F 11.1 °F 17.6 °F 80% 29.98 in 10.0 mi WNW 12.7 mph 19.6 mph N/A   Overcast
4:33 PM 23.0 °F 13.9 °F 17.6 °F 80% 29.99 in 10.0 mi WNW 8.1 mph - N/A   Overcast
4:53 PM 23.0 °F 13.9 °F 17.6 °F 80% 30.00 in 10.0 mi WNW 8.1 mph - N/A   Overcast
5:12 PM 21.2 °F 8.9 °F 17.6 °F 86% 30.01 in 10.0 mi West 12.7 mph 19.6 mph N/A   Overcast
5:33 PM 21.2 °F 10.9 °F 17.6 °F 86% 30.01 in 10.0 mi WNW 9.2 mph 16.1 mph N/A   Overcast
5:53 PM 21.2 °F 14.9 °F 17.6 °F 86% 30.02 in 10.0 mi NW 4.6 mph - N/A   Overcast
6:12 PM 21.2 °F 14.9 °F 17.6 °F 86% 30.02 in 10.0 mi NW 4.6 mph - N/A   Mostly Cloudy
6:33 PM 21.2 °F - 15.8 °F 80% 30.02 in 10.0 mi Calm Calm - N/A   Mostly Cloudy
6:53 PM 19.4 °F - 15.8 °F 86% 30.02 in 10.0 mi Calm Calm - N/A   Scattered Clouds
7:12 PM 17.6 °F - 15.8 °F 93% 30.03 in 10.0 mi Calm Calm - N/A   Clear
7:33 PM 14.0 °F - 12.2 °F 93% 30.04 in 10.0 mi Calm Calm - N/A   Clear
7:53 PM 10.4 °F - 8.6 °F 92% 30.04 in 10.0 mi Calm Calm - N/A   Clear
8:12 PM 12.2 °F - 10.4 °F 92% 30.04 in 10.0 mi Calm Calm - N/A   Clear
8:33 PM 10.4 °F - 8.6 °F 92% 30.04 in 10.0 mi Calm Calm - N/A   Clear
8:53 PM 8.6 °F - 6.8 °F 92% 30.05 in 10.0 mi Calm Calm - N/A   Clear
9:13 PM 6.8 °F - 5.0 °F 92% 30.04 in 10.0 mi Calm Calm - N/A   Clear
9:33 PM 3.2 °F - 1.4 °F 92% 30.04 in 10.0 mi Calm Calm - N/A   Clear
9:53 PM 3.2 °F - 1.4 °F 92% 30.04 in 10.0 mi Calm Calm - N/A   Clear
10:12 PM 3.2 °F - 1.4 °F 92% 30.04 in 10.0 mi Calm Calm - N/A   Clear
10:33 PM 3.2 °F - 1.4 °F 92% 30.04 in 10.0 mi Calm Calm - N/A   Clear
10:53 PM 3.2 °F - -0.4 °F 85% 30.03 in 10.0 mi Calm Calm - N/A   Clear
11:12 PM 1.4 °F - -0.4 °F 92% 30.03 in 7.0 mi Calm Calm - N/A   Clear
11:33 PM -0.4 °F - -4.0 °F 85% 30.03 in 10.0 mi Calm Calm - N/A   Clear
11:52 PM -0.4 °F - -2.2 °F 92% 30.03 in 10.0 mi Calm Calm - N/A   Clear